Weather History for Portland Troutdale, OR

Change the Weather History Date:

Saturday, November 9, 2013

  Actual Average Record
Temperature  
Mean Temperature 45 °F 47 °F  
Max Temperature 51 °F 55 °F 68 °F (1989)
Min Temperature 39 °F 40 °F 26 °F (1948)
Degree Days  
Heating Degree Days 20 18  
Month to date heating degree days 135 150  
Cooling Degree Days 0 0  
Month to date cooling degree days 0 0  
Moisture  
Dew Point 42 °F    
Average Humidity 87    
Maximum Humidity 96    
Minimum Humidity 77    
Precipitation  
Precipitation 0.00 in 0.26 in 1.43 in (1968)
Month to date precipitation 2.28 2.09  
Year to date precipitation 24.81 34.61  
Sea Level Pressure  
Sea Level Pressure 30.08 in    
Wind  
Wind Speed 1 mph (West)    
Max Wind Speed 7 mph    
Max Gust Speed 9 mph    
Visibility 7 miles    
Events      
T = Trace of Precipitation, MM = Missing Value Source: NWS Daily Summary

Daily Weather History Graph

Daily Weather History Graph

Search for Another Location

Airport:

Trip Planner

Search our weather history database for the weather conditions in past years. The results will help you decide how hot, cold, wet, or windy it might be!

Date:

Astronomy

Nov. 09, 2013 Rise Set
Actual Time 7:00 AM PST 4:45 PM PST
Civil Twilight 6:29 AM PST 5:17 PM PST
Nautical Twilight 5:53 AM PST 5:52 PM PST
Astronomical Twilight 5:18 AM PST 6:27 PM PST
Moon 12:37 PM PST (11/9) 11:26 PM PST (11/9)
Length of Visible Light 10h 47m
Length of Day
9h 44m
Waxing Crescent, 45% of the Moon is Illuminated
Nov 9
Waxing Crescent
Nov 9
First Quarter
Nov 17
Full
Nov 25
Last Quarter
Dec 2
New

Hourly Weather History & Observations

Time (PST) Temp. Dew Point Humidity Pressure Visibility Wind Dir Wind Speed Gust Speed Precip Events Conditions
12:37 AM 42.8 °F 39.2 °F 87% 30.13 in 1.8 mi Calm Calm - N/A   Clear
12:53 AM 42.1 °F 39.9 °F 92% 30.12 in 1.2 mi Calm Calm - N/A   Clear
1:00 AM 42.8 °F 41.0 °F 93% 30.12 in 3.0 mi Calm Calm - N/A   Clear
1:48 AM 41.0 °F 39.2 °F 93% 30.12 in 1.8 mi Calm Calm - N/A   Clear
1:53 AM 41.0 °F 39.0 °F 93% 30.12 in 1.0 mi Calm Calm - N/A   Clear
2:02 AM 42.8 °F 39.2 °F 87% 30.11 in 0.8 mi Calm Calm - N/A   Clear
2:07 AM 41.0 °F 39.2 °F 93% 30.11 in 1.2 mi Calm Calm - N/A   Clear
2:20 AM 41.0 °F 39.2 °F 93% 30.11 in 3.0 mi Calm Calm - N/A   Clear
2:53 AM 41.0 °F 39.0 °F 93% 30.11 in 10.0 mi Calm Calm - N/A   Clear
3:27 AM 39.2 °F 39.2 °F 100% 30.11 in 5.0 mi Calm Calm - N/A   Scattered Clouds
3:30 AM 39.2 °F 37.4 °F 93% 30.11 in 2.5 mi Calm Calm - N/A   Mostly Cloudy
3:48 AM 41.0 °F 39.2 °F 93% 30.10 in 7.0 mi Calm Calm - N/A   Mostly Cloudy
3:53 AM 41.0 °F 39.0 °F 93% 30.10 in 7.0 mi Calm Calm - N/A   Mostly Cloudy
4:36 AM 42.8 °F 39.2 °F 87% 30.09 in 8.0 mi Calm Calm - N/A   Scattered Clouds
4:53 AM 41.0 °F 39.0 °F 93% 30.10 in 4.0 mi Calm Calm - N/A   Scattered Clouds
5:53 AM 42.1 °F 41.0 °F 96% 30.08 in 8.0 mi Calm Calm - N/A   Clear
6:53 AM 44.1 °F 41.0 °F 89% 30.08 in 8.0 mi Calm Calm - N/A   Clear
7:53 AM 44.1 °F 42.1 °F 93% 30.08 in 10.0 mi Calm Calm - N/A   Mostly Cloudy
8:53 AM 46.9 °F 42.1 °F 83% 30.08 in 10.0 mi Calm Calm - N/A   Overcast
9:53 AM 48.9 °F 42.1 °F 77% 30.08 in 10.0 mi Calm Calm - N/A   Overcast
10:53 AM 48.9 °F 44.1 °F 83% 30.09 in 10.0 mi West 5.8 mph - N/A   Overcast
11:53 AM 48.9 °F 44.1 °F 83% 30.07 in 10.0 mi Calm Calm - N/A   Overcast
12:53 PM 51.1 °F 44.1 °F 77% 30.06 in 10.0 mi Calm Calm - N/A   Overcast
1:53 PM 50.0 °F 44.1 °F 80% 30.05 in 10.0 mi West 4.6 mph - N/A   Overcast
2:53 PM 51.1 °F 44.1 °F 77% 30.05 in 10.0 mi Variable 3.5 mph - N/A   Overcast
3:53 PM 50.0 °F 44.1 °F 80% 30.06 in 10.0 mi West 3.5 mph - N/A   Overcast
4:53 PM 48.9 °F 44.1 °F 83% 30.05 in 10.0 mi Calm Calm - N/A   Overcast
5:53 PM 48.9 °F 44.1 °F 83% 30.05 in 10.0 mi Calm Calm - N/A   Overcast
6:53 PM 48.9 °F 44.1 °F 83% 30.05 in 10.0 mi West 3.5 mph - N/A   Overcast
7:53 PM 48.9 °F 43.0 °F 80% 30.04 in 10.0 mi Calm Calm - N/A   Overcast
8:53 PM 48.9 °F 44.1 °F 83% 30.05 in 10.0 mi Calm Calm - N/A   Overcast
9:53 PM 48.9 °F 44.1 °F 83% 30.06 in 10.0 mi WSW 6.9 mph - N/A   Overcast
10:53 PM 48.9 °F 44.1 °F 83% 30.05 in 10.0 mi Calm Calm - N/A   Overcast
11:53 PM 48.9 °F 44.1 °F 83% 30.05 in 10.0 mi Calm Calm - N/A   Overcast